[[{"header":{"parameterUnit":"m.s-1","parameterCategory":2,"la1":30.2991,"la2":30.254,"lo1":-89.0895,"lo2":-89.0444,"dy":0.0017,"dx":0.0017,"nx":28,"ny":28,"refTime":"2024-03-17T09:00:00:Z","depth":"0","parameterNumber":2,"parameterNumberName":"U-component_of_CURRENTS"},"data":[0,0,0,0,0,0,0,0,0,0,0,0,0,0,0,0,0,0,0,0,0,0,0,0,0,0,0,0,0,0,0,0,0,0,0,0,0,0,0,0,0,0,0,0,0,0,0,0,0,0,0,0,0,0,0,0,0,0,0.2229,0.2229,0,0.2244,0.2244,0.2244,0.2238,0.2238,0.2238,0.2238,0.2233,0.2233,0.2233,0,0,0,0,0,0,0,0,0,0,0,0,0,0.2198,0.2198,0.2229,0.2229,0.223,0.2244,0.2244,0.2244,0.2238,0.2238,0.2238,0.2238,0.2233,0.2233,0.2233,0,0,0,0,0,0,0,0,0,0,0,0,0,0.221,0.2198,0.2229,0.223,0.223,0.2244,0.2244,0.2245,0.2239,0.2238,0.2238,0.2238,0.2233,0.2233,0.2233,0.2239,0,0,0.2233,0.2233,0,0,0,0,0,0,0,0,0.221,0.2211,0.2229,0.223,0.223,0.2241,0.2232,0.2242,0.2239,0.2233,0.2238,0.2238,0.2235,0.2235,0.2236,0.2239,0.2238,0.2233,0.2233,0.2233,0.2233,0,0,0,0,0,0,0,0.2209,0.2211,0.2233,0.223,0.223,0.2231,0.2232,0.2234,0.2234,0.2234,0.2234,0.2239,0.2235,0.2236,0.2236,0.2238,0.2233,0.2233,0.2233,0.2233,0.2258,0.2259,0,0,0,0,0,0,0.2211,0.221,0.2233,0.2234,0.2221,0.2232,0.2233,0.2236,0.2234,0.2234,0.2239,0.2238,0.2236,0.2236,0.2236,0.2257,0.2233,0.2233,0.2233,0.2257,0.2258,0.2259,0,0,0,0,0,0,0.221,0.2213,0.2232,0.2224,0.2226,0.2233,0.2236,0.2237,0.224,0.2239,0.2238,0.2242,0.2236,0.2236,0.2242,0.2256,0.2233,0.2233,0.2257,0.2258,0.2258,0.229,0,0,0,0,0,0,0.2209,0.2212,0.2215,0.2224,0.2227,0.2246,0.2237,0.2237,0.2244,0.2243,0.2241,0.224,0.2236,0.2242,0.2242,0.2256,0.2233,0.2256,0.2257,0.2258,0.2288,0.2292,0.2295,0,0,0,0,0,0.2208,0.2212,0.2215,0.2218,0.2231,0.2247,0.2249,0.2251,0.2244,0.2251,0.2248,0.224,0.2249,0.2242,0.2242,0.2256,0.2255,0.2257,0.2258,0.2287,0.2291,0.2295,0,0,0,0,0,0,0.2195,0.2213,0.2216,0.2224,0.2238,0.2247,0.2252,0.2253,0.2256,0.2253,0.2247,0.2247,0.226,0.2253,0.2245,0.2267,0.2252,0.2253,0.2273,0.2278,0.2281,0.2295,0.2233,0,0,0,0,0,0.2196,0.2206,0.2222,0.2229,0.2237,0.2245,0.2251,0.2255,0.2259,0.226,0.2258,0.2258,0.2266,0.2266,0.2272,0.228,0.2289,0.229,0.2293,0.2296,0.2308,0.233,0.2337,0.2263,0.2263,0.2263,0,0,0.219,0.2204,0.2207,0.2228,0.2237,0.2254,0.2248,0.226,0.2274,0.2259,0.2271,0.2272,0.2272,0.2286,0.2291,0.2281,0.2323,0.2298,0.23,0.2311,0.2332,0.2339,0.2346,0.2264,0.2264,0.2264,0,0,0.2189,0.22,0.221,0.2227,0.2249,0.2259,0.2265,0.2277,0.2283,0.2295,0.2293,0.2303,0.2304,0.2315,0.2319,0.2344,0.2344,0.2341,0.2367,0.2388,0.2395,0.24,0.2427,0.2435,0.2339,0.2339,0.2339,0,0.2181,0.2199,0.2214,0.2234,0.225,0.2263,0.2279,0.2293,0.2305,0.2314,0.2302,0.2324,0.2322,0.2352,0.2361,0.2354,0.2366,0.235,0.2394,0.2399,0.2405,0.2431,0.2439,0.2341,0.234,0.234,0.234,0,0.2193,0.2209,0.2219,0.225,0.2268,0.2286,0.231,0.2327,0.2332,0.2342,0.2368,0.2369,0.2384,0.2384,0.238,0.2419,0.2417,0.2399,0.2384,0.2414,0.2439,0.2448,0.2343,0.2342,0.2342,0.2342,0,0,0.217,0.2217,0.222,0.224,0.2279,0.2295,0.2327,0.2359,0.2384,0.2392,0.2422,0.2436,0.2439,0.2445,0.2444,0.246,0.2508,0.2447,0.2447,0.2476,0.2563,0.2571,0.258,0.2495,0.2497,0.2498,0.2568,0,0.2174,0.2215,0.2234,0.2269,0.2294,0.2321,0.235,0.2381,0.2406,0.244,0.2453,0.248,0.2463,0.2475,0.2491,0.251,0.253,0.2491,0.2528,0.2529,0.2534,0.259,0.2551,0.2611,0.2575,0.2577,0.2578,0,0.2178,0.2211,0.2242,0.2291,0.2302,0.232,0.2376,0.2405,0.2458,0.2479,0.2512,0.2526,0.257,0.254,0.2593,0.257,0.2574,0.2578,0.258,0.2584,0.2552,0.2573,0.2626,0.2603,0.259,0.2589,0.2588,0,0.2165,0.2215,0.2239,0.2257,0.2311,0.2325,0.2356,0.2411,0.2452,0.2511,0.255,0.2588,0.2625,0.2636,0.2656,0.2628,0.271,0.2668,0.2679,0.2679,0.2653,0.2649,0.269,0.2701,0.2701,0.2701,0.2701,0,0.2163,0.2185,0.2234,0.2248,0.2279,0.2321,0.2363,0.24,0.2476,0.2524,0.2569,0.2621,0.2652,0.2699,0.2691,0.273,0.2741,0.2708,0.2706,0.2663,0.2659,0.2641,0.2622,0.2704,0.2703,0.2702,0.2702,0,0.2134,0.2168,0.2199,0.2253,0.2268,0.2289,0.2367,0.2404,0.2483,0.2554,0.2579,0.2674,0.274,0.2771,0.2808,0.279,0.2755,0.281,0.2767,0.2758,0.2731,0.2714,0.2644,0.2546,0.2836,0.2837,0.2837,0,0.2121,0.2135,0.2187,0.2203,0.2219,0.2268,0.2297,0.2386,0.2437,0.2576,0.2605,0.2716,0.2776,0.2864,0.2871,0.2892,0.2788,0.2843,0.2778,0.2751,0.2731,0.2604,0.2515,0.2757,0.2757,0.2757,0.2757,0,0.2091,0.2105,0.2128,0.2161,0.2185,0.2227,0.2284,0.2331,0.2435,0.2514,0.2612,0.2683,0.2812,0.2837,0.2894,0.2889,0.2747,0.2842,0.2823,0.2694,0.255,0.2447,0.2693,0.2756,0.2756,0.2756,0.2756,0.2756,0.2055,0.2059,0.2082,0.2107,0.2135,0.2161,0.217,0.2255,0.2327,0.2423,0.2547,0.264,0.2776,0.2869,0.2837,0.283,0.2754,0.277,0.2761,0.264,0.2518,0.2774,0.2825,0.2826,0.2826,0.2827,0.2827,0,0.1996,0.2008,0.203,0.204,0.2036,0.2081,0.2131,0.2134,0.2177,0.2332,0.2422,0.2609,0.2691,0.2769,0.2852,0.2775,0.2601,0.2713,0.2533,0.245,0.271,0.2682,0.2694,0.2694,0.2694,0.2694,0.2694,0.2694,0.1964,0.1949,0.1962,0.1927,0.1936,0.19,0.1908,0.1944,0.2035,0.2165,0.2292,0.2439,0.2705,0.2905,0.2892,0.2801,0.255,0.2479,0.2402,0.2635,0.2638,0.2641,0.2611,0.2608,0.2608,0.2042,0.2038,0.2036]},{"header":{"parameterUnit":"m.s-1","parameterCategory":2,"la1":30.2991,"la2":30.254,"lo1":-89.0895,"lo2":-89.0444,"dy":0.0017,"dx":0.0017,"nx":28,"ny":28,"refTime":"2024-03-17T09:00:00:Z","depth":"0","parameterNumber":3,"parameterNumberName":"V-component_of_CURRENTS"},"data":[0,0,0,0,0,0,0,0,0,0,0,0,0,0,0,0,0,0,0,0,0,0,0,0,0,0,0,0,0,0,0,0,0,0,0,0,0,0,0,0,0,0,0,0,0,0,0,0,0,0,0,0,0,0,0,0,0,0,-0.0164,-0.0164,0,-0.019,-0.0191,-0.0191,-0.0216,-0.0216,-0.0217,-0.0217,-0.0255,-0.0255,-0.0256,0,0,0,0,0,0,0,0,0,0,0,0,0,-0.0167,-0.0166,-0.0164,-0.0164,-0.0165,-0.019,-0.0191,-0.0191,-0.0216,-0.0216,-0.0217,-0.0217,-0.0254,-0.0255,-0.0256,0,0,0,0,0,0,0,0,0,0,0,0,0,-0.0178,-0.0166,-0.0164,-0.0179,-0.0181,-0.019,-0.0191,-0.0191,-0.0216,-0.0216,-0.0217,-0.0217,-0.0254,-0.0255,-0.0256,-0.0258,0,0,-0.026,-0.0261,0,0,0,0,0,0,0,0,-0.0177,-0.0178,-0.0177,-0.0178,-0.018,-0.0199,-0.0205,-0.0214,-0.0216,-0.0204,-0.0217,-0.0217,-0.0236,-0.0239,-0.0245,-0.026,-0.0262,-0.026,-0.0261,-0.0262,-0.0262,0,0,0,0,0,0,0,-0.0176,-0.0177,-0.0176,-0.0177,-0.0179,-0.0195,-0.0197,-0.0207,-0.0219,-0.0205,-0.0207,-0.0207,-0.0237,-0.0244,-0.0246,-0.0262,-0.026,-0.0261,-0.0262,-0.0263,-0.0282,-0.0282,0,0,0,0,0,0,-0.0168,-0.0176,-0.0175,-0.0177,-0.0177,-0.0194,-0.0196,-0.0194,-0.0219,-0.0223,-0.0207,-0.0208,-0.0241,-0.0244,-0.0247,-0.024,-0.0262,-0.0263,-0.0264,-0.0282,-0.0282,-0.0282,0,0,0,0,0,0,-0.0168,-0.0168,-0.0174,-0.0176,-0.0178,-0.0194,-0.0191,-0.0194,-0.0198,-0.022,-0.0224,-0.0207,-0.0242,-0.0246,-0.025,-0.0243,-0.0263,-0.0264,-0.0283,-0.0282,-0.0282,-0.0233,0,0,0,0,0,0,-0.0168,-0.0167,-0.0163,-0.0175,-0.0177,-0.0172,-0.019,-0.0194,-0.0198,-0.02,-0.0222,-0.0226,-0.0242,-0.0248,-0.0252,-0.0245,-0.0265,-0.0283,-0.0282,-0.0282,-0.0235,-0.0231,-0.0228,0,0,0,0,0,-0.0168,-0.0155,-0.0163,-0.0162,-0.0171,-0.0171,-0.0174,-0.0187,-0.0197,-0.0194,-0.0209,-0.0225,-0.0248,-0.0249,-0.0253,-0.0246,-0.0283,-0.0283,-0.0282,-0.0237,-0.0232,-0.0228,0,0,0,0,0,0,-0.0151,-0.0156,-0.0165,-0.0154,-0.016,-0.0175,-0.0172,-0.0183,-0.0193,-0.0195,-0.0219,-0.0223,-0.0226,-0.0243,-0.0243,-0.0252,-0.027,-0.027,-0.0234,-0.023,-0.0226,-0.0214,-0.0266,0,0,0,0,0,-0.0145,-0.0139,-0.0149,-0.014,-0.0142,-0.0158,-0.016,-0.0169,-0.0179,-0.0184,-0.02,-0.0217,-0.0228,-0.0233,-0.0247,-0.0248,-0.027,-0.0248,-0.0244,-0.0241,-0.0234,-0.0262,-0.026,-0.028,-0.028,-0.028,0,0,-0.0136,-0.0139,-0.0135,-0.0137,-0.0144,-0.0134,-0.016,-0.0158,-0.0151,-0.0186,-0.0183,-0.0204,-0.0225,-0.0227,-0.0231,-0.0239,-0.0247,-0.0241,-0.0237,-0.0232,-0.0261,-0.0259,-0.0257,-0.028,-0.028,-0.028,0,0,-0.0109,-0.0117,-0.0102,-0.0105,-0.011,-0.0116,-0.0113,-0.0126,-0.0133,-0.0134,-0.0157,-0.0171,-0.0188,-0.0202,-0.0211,-0.0196,-0.0228,-0.0203,-0.0174,-0.02,-0.0199,-0.0198,-0.0223,-0.0224,-0.0201,-0.0201,-0.0201,0,-0.0098,-0.0079,-0.0097,-0.0085,-0.0079,-0.0104,-0.0082,-0.0093,-0.0106,-0.0108,-0.0125,-0.0154,-0.0175,-0.0176,-0.0174,-0.0187,-0.0208,-0.0186,-0.0195,-0.0194,-0.0194,-0.022,-0.0223,-0.0199,-0.0199,-0.0199,-0.02,0,-0.0061,-0.0047,-0.0038,-0.0028,-0.0025,-0.0012,-0.0025,-0.0028,-0.0042,-0.0055,-0.0066,-0.01,-0.0116,-0.0129,-0.0146,-0.0152,-0.0169,-0.0187,-0.0203,-0.0189,-0.0218,-0.0221,-0.0195,-0.0196,-0.0197,-0.0198,0,0,-0.0027,-0.0013,-0.0008,0.0008,0.0008,0.0017,0.0026,0.003,0.004,0.0008,0.0015,-0.0019,-0.0046,-0.0059,-0.0089,-0.0116,-0.0136,-0.0146,-0.0149,-0.0166,-0.0194,-0.0211,-0.0217,-0.0156,-0.0156,-0.0156,-0.0215,0,0.0012,0.0052,0.0048,0.0091,0.0113,0.0094,0.0109,0.0103,0.0089,0.0085,0.0036,0.003,-0.0017,-0.0024,-0.0058,-0.0112,-0.0142,-0.0118,-0.021,-0.0212,-0.0225,-0.022,-0.0221,-0.0273,-0.0218,-0.0219,-0.0219,0,0.0057,0.0078,0.0128,0.0157,0.0165,0.0182,0.0201,0.0208,0.0188,0.0175,0.0146,0.0109,0.007,0.0025,-0.0065,-0.0048,-0.0115,-0.0166,-0.0169,-0.0203,-0.0235,-0.028,-0.0282,-0.0443,-0.0225,-0.0224,-0.0224,0,0.0101,0.0137,0.0183,0.0191,0.0216,0.0231,0.0239,0.0234,0.0256,0.0227,0.0238,0.0175,0.0154,0.006,-0.0049,-0.0055,-0.0156,-0.0178,-0.0259,-0.0261,-0.0288,-0.0292,-0.0451,-0.0246,-0.0246,-0.0246,-0.0246,0,0.0151,0.0186,0.0205,0.0229,0.0286,0.0274,0.0325,0.0319,0.0326,0.0365,0.0286,0.0302,0.0162,0.0088,-0.0025,-0.015,-0.014,-0.0251,-0.0276,-0.0271,-0.0273,-0.0435,-0.0526,-0.0248,-0.0247,-0.0247,-0.0247,0,0.0197,0.021,0.0264,0.0295,0.0312,0.0345,0.0392,0.0425,0.0415,0.0461,0.046,0.0401,0.0306,0.0156,0.0007,-0.0106,-0.0331,-0.0282,-0.0267,-0.0289,-0.0506,-0.0593,-0.0783,-0.0866,-0.0373,-0.0374,-0.0374,0,0.0225,0.0259,0.0317,0.0355,0.0373,0.042,0.0463,0.0473,0.052,0.0533,0.0569,0.0488,0.0456,0.0217,-0.0002,-0.0209,-0.0363,-0.0351,-0.0364,-0.0519,-0.0635,-0.0706,-0.0767,-0.0384,-0.0385,-0.0385,-0.0386,0,0.0283,0.0304,0.0349,0.0427,0.048,0.0546,0.0603,0.066,0.0682,0.0714,0.0747,0.0717,0.0493,0.0286,-0.0012,-0.0166,-0.0479,-0.0367,-0.0537,-0.0664,-0.0744,-0.0834,-0.0348,-0.0391,-0.039,-0.039,-0.0389,-0.0389,0.033,0.0371,0.0433,0.0509,0.0577,0.0665,0.0726,0.0791,0.0873,0.0931,0.0894,0.0866,0.0543,0.0144,-0.0088,-0.052,-0.0525,-0.0644,-0.0737,-0.0795,-0.0878,-0.04,-0.0466,-0.0466,-0.0466,-0.0466,-0.0466,0,0.0388,0.0435,0.051,0.0604,0.0688,0.0708,0.0823,0.0881,0.098,0.1024,0.1044,0.0852,0.0469,0.0062,-0.05,-0.0818,-0.0949,-0.1011,-0.1122,-0.1166,-0.0746,-0.075,-0.087,-0.087,-0.087,-0.087,-0.0869,-0.0869,0.0421,0.0505,0.0543,0.0689,0.0752,0.0862,0.093,0.1008,0.1062,0.109,0.1056,0.0996,0.064,-0.032,-0.104,-0.1212,-0.1451,-0.151,-0.1637,-0.136,-0.1332,-0.1307,-0.1332,-0.1572,-0.1573,-0.2015,-0.2019,-0.2023]}],[{"header":{"parameterUnit":"m.s-1","parameterCategory":2,"la1":30.2991,"la2":30.254,"lo1":-89.0895,"lo2":-89.0444,"dy":0.0017,"dx":0.0017,"nx":28,"ny":28,"refTime":"2024-03-17T09:00:00:Z","depth":"2","parameterNumber":2,"parameterNumberName":"U-component_of_CURRENTS"},"data":[0,0,0,0,0,0,0,0,0,0,0,0,0,0,0,0,0,0,0,0,0,0,0,0,0,0,0,0,0,0,0,0,0,0,0,0,0,0,0,0,0,0,0,0,0,0,0,0,0,0,0,0,0,0,0,0,0,0,0.2174,0.2174,0,0.219,0.219,0.2191,0.2188,0.2188,0.2187,0.2187,0.2187,0.2187,0.2187,0,0,0,0,0,0,0,0,0,0,0,0,0,0.2142,0.2142,0.2174,0.2174,0.2175,0.219,0.219,0.2191,0.2188,0.2188,0.2187,0.2187,0.2187,0.2187,0.2187,0,0,0,0,0,0,0,0,0,0,0,0,0,0.2155,0.2142,0.2174,0.2177,0.2177,0.219,0.219,0.2191,0.2188,0.2188,0.2187,0.2187,0.2187,0.2187,0.2187,0.2191,0,0,0.2187,0.2187,0,0,0,0,0,0,0,0,0.2154,0.2156,0.2176,0.2176,0.2177,0.2189,0.2179,0.2191,0.2188,0.2182,0.2187,0.2187,0.2187,0.2187,0.2188,0.2191,0.2191,0.2187,0.2187,0.2187,0.2187,0,0,0,0,0,0,0,0.2153,0.2155,0.2179,0.2176,0.2177,0.2178,0.2179,0.2181,0.2183,0.2182,0.2183,0.2187,0.2187,0.2188,0.2188,0.2191,0.2187,0.2187,0.2187,0.2187,0.2215,0.2216,0,0,0,0,0,0,0.2155,0.2154,0.2178,0.2179,0.2167,0.2179,0.218,0.2183,0.2184,0.2184,0.2188,0.2187,0.2188,0.2188,0.2188,0.2212,0.2187,0.2187,0.2188,0.2215,0.2216,0.2216,0,0,0,0,0,0,0.2154,0.2157,0.2177,0.2169,0.2172,0.2179,0.2183,0.2184,0.2189,0.2188,0.2188,0.2193,0.2188,0.2188,0.2196,0.2212,0.2188,0.2188,0.2214,0.2215,0.2216,0.2249,0,0,0,0,0,0,0.2153,0.2157,0.2161,0.2169,0.2172,0.2192,0.2184,0.2184,0.2193,0.2193,0.2193,0.2192,0.2188,0.2196,0.2196,0.2211,0.2188,0.2213,0.2214,0.2216,0.2247,0.2251,0.2254,0,0,0,0,0,0.2152,0.2157,0.2161,0.2164,0.2177,0.2193,0.2195,0.2198,0.2194,0.2201,0.2199,0.2192,0.2204,0.2197,0.2197,0.2212,0.2213,0.2214,0.2215,0.2245,0.225,0.2254,0,0,0,0,0,0,0.2141,0.2158,0.2162,0.2171,0.2185,0.2193,0.2201,0.2202,0.2206,0.2205,0.2199,0.2199,0.2215,0.2208,0.22,0.2224,0.2208,0.2209,0.223,0.2235,0.2238,0.2252,0.2188,0,0,0,0,0,0.2142,0.2153,0.2169,0.2177,0.2185,0.2194,0.22,0.2204,0.221,0.2212,0.2211,0.2212,0.2221,0.2223,0.2228,0.2238,0.2246,0.2248,0.2252,0.2255,0.2267,0.2288,0.2295,0.2221,0.2221,0.2221,0,0,0.2138,0.2152,0.2156,0.2176,0.2186,0.2202,0.2197,0.2211,0.2225,0.2211,0.2225,0.2227,0.2228,0.2243,0.2249,0.2238,0.2282,0.2257,0.226,0.227,0.2291,0.2298,0.2304,0.2222,0.2222,0.2222,0,0,0.2139,0.2151,0.2161,0.2178,0.2201,0.221,0.2216,0.2229,0.2236,0.225,0.2248,0.226,0.2263,0.2273,0.2277,0.2304,0.2303,0.2302,0.2329,0.2349,0.2356,0.2361,0.2387,0.2395,0.23,0.23,0.23,0,0.2133,0.2151,0.2166,0.2186,0.2201,0.2215,0.2231,0.2245,0.2258,0.2269,0.2258,0.2282,0.2281,0.231,0.2321,0.2314,0.2326,0.2311,0.2355,0.2361,0.2366,0.2391,0.2399,0.2302,0.2302,0.2302,0.2302,0,0.2146,0.2163,0.2172,0.2203,0.2221,0.2239,0.2263,0.2281,0.2287,0.2298,0.2326,0.2328,0.2344,0.2345,0.2341,0.2381,0.2378,0.236,0.2345,0.2375,0.2399,0.2407,0.2305,0.2304,0.2303,0.2303,0,0,0.2126,0.2171,0.2175,0.2195,0.2233,0.2249,0.2281,0.2313,0.2338,0.2349,0.238,0.2396,0.24,0.2406,0.2406,0.2421,0.2469,0.2409,0.2409,0.2437,0.2523,0.2524,0.2533,0.2457,0.2459,0.246,0.2527,0,0.2131,0.2171,0.2189,0.2225,0.2249,0.2276,0.2305,0.2336,0.2362,0.2397,0.2411,0.2439,0.2423,0.2436,0.2453,0.2471,0.249,0.2453,0.2487,0.2489,0.2488,0.2543,0.2321,0.2363,0.2534,0.2535,0.2536,0,0.2136,0.2168,0.2199,0.2247,0.2258,0.2277,0.2332,0.2361,0.2415,0.2436,0.247,0.2485,0.2529,0.2501,0.2553,0.253,0.2534,0.2538,0.254,0.2538,0.2505,0.2358,0.2371,0.255,0.2548,0.2547,0.2547,0,0.2123,0.2173,0.2198,0.2215,0.2268,0.2284,0.2315,0.2369,0.241,0.247,0.2509,0.2547,0.2585,0.2595,0.2615,0.2588,0.2667,0.2626,0.2631,0.2631,0.2449,0.2431,0.2658,0.2658,0.2658,0.2658,0.2658,0,0.2122,0.2145,0.2193,0.2208,0.2239,0.2281,0.2324,0.2361,0.2436,0.2484,0.253,0.258,0.2611,0.2657,0.2649,0.2683,0.2697,0.2659,0.2656,0.2455,0.2438,0.2598,0.259,0.266,0.266,0.2659,0.2659,0,0.2095,0.2129,0.2161,0.2214,0.2229,0.2252,0.2329,0.2367,0.2445,0.2515,0.2541,0.2633,0.2696,0.2727,0.2761,0.2741,0.2757,0.2756,0.2531,0.2502,0.2695,0.2688,0.2773,0.2774,0.2774,0.2775,0.2775,0,0.2083,0.2098,0.215,0.2166,0.2184,0.2233,0.2262,0.2351,0.24,0.2536,0.2564,0.2672,0.2725,0.2806,0.278,0.2789,0.2803,0.259,0.25,0.2722,0.2711,0.2702,0.2695,0.2265,0.2261,0.2258,0.2256,0,0.2055,0.207,0.2093,0.2127,0.2152,0.2194,0.2251,0.2296,0.2399,0.2473,0.2565,0.2628,0.2721,0.2638,0.2677,0.2644,0.2573,0.2532,0.2814,0.2288,0.2254,0.2239,0.2246,0.2228,0.2231,0.2233,0.2235,0.2236,0.2021,0.2026,0.205,0.2076,0.2104,0.213,0.2138,0.2208,0.2273,0.2331,0.2464,0.2468,0.2493,0.2447,0.2382,0.2328,0.2503,0.236,0.2364,0.2373,0.232,0.2291,0.2263,0.2265,0.2268,0.227,0.2272,0,0.196,0.1977,0.2,0.2012,0.2001,0.2053,0.21,0.2076,0.2095,0.2172,0.2226,0.2072,0.2047,0.2065,0.195,0.1979,0.1908,0.189,0.1749,0.178,0.1807,0.1719,0.1505,0.1502,0.15,0.1497,0,0,0.1928,0.1912,0.1924,0.1887,0.1903,0.1854,0.1859,0.1839,0.1857,0.182,0.1801,0.1943,0.2019,0.1719,0.1701,0.1572,0.1656,0.152,0.2143,0.2008,0.2031,0.21,0.2005,0,0,0,0,0]},{"header":{"parameterUnit":"m.s-1","parameterCategory":2,"la1":30.2991,"la2":30.254,"lo1":-89.0895,"lo2":-89.0444,"dy":0.0017,"dx":0.0017,"nx":28,"ny":28,"refTime":"2024-03-17T09:00:00:Z","depth":"2","parameterNumber":3,"parameterNumberName":"V-component_of_CURRENTS"},"data":[0,0,0,0,0,0,0,0,0,0,0,0,0,0,0,0,0,0,0,0,0,0,0,0,0,0,0,0,0,0,0,0,0,0,0,0,0,0,0,0,0,0,0,0,0,0,0,0,0,0,0,0,0,0,0,0,0,0,-0.0057,-0.0057,0,-0.0083,-0.0083,-0.0084,-0.011,-0.011,-0.0111,-0.0111,-0.0149,-0.015,-0.015,0,0,0,0,0,0,0,0,0,0,0,0,0,-0.0058,-0.0058,-0.0057,-0.0057,-0.0057,-0.0083,-0.0083,-0.0084,-0.011,-0.011,-0.0111,-0.0111,-0.0149,-0.0149,-0.015,0,0,0,0,0,0,0,0,0,0,0,0,0,-0.0069,-0.0058,-0.0057,-0.0073,-0.0074,-0.0083,-0.0083,-0.0084,-0.011,-0.011,-0.0111,-0.0111,-0.0148,-0.0149,-0.0151,-0.015,0,0,-0.0154,-0.0155,0,0,0,0,0,0,0,0,-0.0068,-0.0069,-0.007,-0.0072,-0.0073,-0.0093,-0.0097,-0.0106,-0.011,-0.0098,-0.0111,-0.0111,-0.013,-0.0133,-0.0138,-0.0152,-0.0153,-0.0154,-0.0155,-0.0155,-0.0156,0,0,0,0,0,0,0,-0.0068,-0.0068,-0.0068,-0.007,-0.0072,-0.0088,-0.009,-0.0099,-0.0113,-0.0099,-0.0101,-0.0101,-0.0131,-0.0137,-0.0139,-0.0154,-0.0154,-0.0155,-0.0156,-0.0156,-0.0176,-0.0175,0,0,0,0,0,0,-0.006,-0.0067,-0.0067,-0.0069,-0.0071,-0.0087,-0.009,-0.0087,-0.0112,-0.0116,-0.0101,-0.0103,-0.0135,-0.0138,-0.0141,-0.0136,-0.0155,-0.0156,-0.0157,-0.0176,-0.0176,-0.0175,0,0,0,0,0,0,-0.006,-0.006,-0.0066,-0.0068,-0.007,-0.0087,-0.0084,-0.0087,-0.0093,-0.0114,-0.0118,-0.0103,-0.0135,-0.0139,-0.0145,-0.0138,-0.0157,-0.0158,-0.0176,-0.0176,-0.0176,-0.013,0,0,0,0,0,0,-0.006,-0.0059,-0.0056,-0.0067,-0.007,-0.0065,-0.0083,-0.0087,-0.0093,-0.0095,-0.0117,-0.0121,-0.0136,-0.0143,-0.0146,-0.014,-0.0159,-0.0176,-0.0176,-0.0176,-0.0131,-0.0128,-0.0125,0,0,0,0,0,-0.006,-0.0048,-0.0056,-0.0056,-0.0064,-0.0064,-0.0067,-0.0081,-0.0092,-0.009,-0.0105,-0.012,-0.0143,-0.0143,-0.0147,-0.0141,-0.0176,-0.0176,-0.0176,-0.0133,-0.0129,-0.0125,0,0,0,0,0,0,-0.0044,-0.005,-0.0058,-0.0049,-0.0055,-0.0068,-0.0067,-0.0078,-0.0089,-0.0092,-0.0114,-0.0119,-0.0123,-0.0138,-0.0138,-0.0147,-0.0164,-0.0164,-0.013,-0.0126,-0.0123,-0.0111,-0.016,0,0,0,0,0,-0.0039,-0.0034,-0.0043,-0.0035,-0.0037,-0.0053,-0.0056,-0.0065,-0.0075,-0.0081,-0.0097,-0.0114,-0.0124,-0.0129,-0.0142,-0.0143,-0.0165,-0.0144,-0.0141,-0.0138,-0.0131,-0.0159,-0.0158,-0.0174,-0.0174,-0.0174,0,0,-0.0031,-0.0034,-0.0031,-0.0032,-0.004,-0.003,-0.0056,-0.0056,-0.0049,-0.0083,-0.0081,-0.0101,-0.0122,-0.0124,-0.0128,-0.0136,-0.0145,-0.0138,-0.0135,-0.0129,-0.0159,-0.0157,-0.0155,-0.0174,-0.0174,-0.0174,0,0,-0.0007,-0.0015,-0.0,-0.0004,-0.0009,-0.0015,-0.0013,-0.0025,-0.0033,-0.0034,-0.0057,-0.0072,-0.0088,-0.0101,-0.011,-0.0096,-0.0127,-0.0104,-0.0076,-0.0103,-0.0102,-0.0101,-0.0127,-0.0129,-0.0102,-0.0102,-0.0102,0,0.0003,0.0021,0.0004,0.0016,0.0022,-0.0004,0.0017,0.0006,-0.0007,-0.0009,-0.0027,-0.0055,-0.0076,-0.0077,-0.0075,-0.0088,-0.0109,-0.0087,-0.0098,-0.0098,-0.0097,-0.0124,-0.0127,-0.01,-0.01,-0.01,-0.01,0,0.0038,0.0051,0.006,0.007,0.0072,0.0085,0.0072,0.0068,0.0053,0.0041,0.0029,-0.0004,-0.002,-0.0033,-0.0049,-0.0056,-0.0073,-0.009,-0.0105,-0.0093,-0.0122,-0.0126,-0.0096,-0.0097,-0.0098,-0.0098,0,0,0.0069,0.0083,0.0087,0.0104,0.0103,0.0113,0.0121,0.0125,0.0134,0.0101,0.0107,0.0074,0.0046,0.0034,0.0004,-0.0022,-0.0044,-0.0052,-0.0055,-0.0073,-0.0104,-0.0122,-0.0128,-0.0064,-0.0064,-0.0064,-0.0125,0,0.0105,0.0145,0.0142,0.0183,0.0205,0.0186,0.0201,0.0196,0.0181,0.0176,0.0128,0.0121,0.0075,0.0067,0.0033,-0.002,-0.0051,-0.0026,-0.0118,-0.012,-0.0134,-0.0132,-0.0101,-0.0153,-0.0129,-0.013,-0.013,0,0.0147,0.0169,0.0217,0.0247,0.0255,0.0271,0.029,0.0297,0.0276,0.0263,0.0233,0.0197,0.0157,0.0113,0.0022,0.004,-0.0026,-0.0077,-0.0081,-0.0114,-0.0145,-0.0162,-0.0161,-0.0137,-0.0136,-0.0136,-0.0135,0,0.0189,0.0225,0.027,0.0278,0.0304,0.0318,0.0325,0.032,0.0342,0.0312,0.0322,0.0259,0.0236,0.0144,0.0035,0.003,-0.0071,-0.0092,-0.0173,-0.0176,-0.0175,-0.0176,-0.0161,-0.016,-0.016,-0.016,-0.016,0,0.0237,0.0271,0.029,0.0314,0.0369,0.0358,0.0407,0.0401,0.0407,0.0444,0.0367,0.038,0.0243,0.0169,0.0058,-0.0067,-0.0058,-0.0167,-0.0192,-0.0159,-0.0158,-0.0164,-0.0164,-0.0162,-0.0162,-0.0162,-0.0161,0,0.028,0.0294,0.0347,0.0378,0.0394,0.0425,0.0471,0.0503,0.0493,0.0536,0.0533,0.0474,0.0377,0.023,0.0082,-0.0026,-0.0151,-0.0202,-0.0155,-0.0173,-0.0244,-0.024,-0.0291,-0.0293,-0.0293,-0.0294,-0.0295,0,0.0307,0.034,0.0397,0.0434,0.0451,0.0496,0.0538,0.0549,0.0593,0.0603,0.0636,0.0553,0.0517,0.0281,0.0073,-0.013,-0.016,-0.024,-0.0247,-0.0237,-0.0257,-0.0252,-0.0247,-0.023,-0.0231,-0.0231,-0.0231,0,0.0362,0.0382,0.0426,0.0501,0.0553,0.0617,0.0672,0.0727,0.0747,0.0777,0.0803,0.0771,0.0551,0.0355,0.0065,-0.0071,-0.0207,-0.0248,-0.025,-0.0201,-0.0185,-0.0202,-0.0199,-0.0231,-0.0231,-0.0231,-0.0231,-0.0231,0.0406,0.0445,0.0505,0.0579,0.0645,0.073,0.0789,0.0849,0.0926,0.0971,0.0933,0.0876,0.0652,0.0288,0.0047,-0.0214,-0.0204,-0.0289,-0.0287,-0.0285,-0.0266,-0.0252,-0.0308,-0.0308,-0.0308,-0.0309,-0.0309,0,0.0463,0.0505,0.0577,0.0668,0.075,0.0769,0.0881,0.0935,0.1025,0.1044,0.105,0.0846,0.061,0.0342,-0.0035,-0.0256,-0.0268,-0.0329,-0.0289,-0.0286,-0.0284,-0.0264,-0.0306,-0.0307,-0.0308,-0.0308,0,0,0.0495,0.0576,0.0613,0.0751,0.081,0.092,0.0985,0.1059,0.1096,0.1121,0.108,0.0996,0.0681,0.0412,0.0115,-0.01,-0.0146,-0.0144,-0.0121,-0.0035,-0.0031,-0.0234,-0.0196,0,0,0,0,0]}],[{"header":{"parameterUnit":"m.s-1","parameterCategory":2,"la1":30.2991,"la2":30.254,"lo1":-89.0895,"lo2":-89.0444,"dy":0.0017,"dx":0.0017,"nx":28,"ny":28,"refTime":"2024-03-17T09:00:00:Z","depth":"4","parameterNumber":2,"parameterNumberName":"U-component_of_CURRENTS"},"data":[0,0,0,0,0,0,0,0,0,0,0,0,0,0,0,0,0,0,0,0,0,0,0,0,0,0,0,0,0,0,0,0,0,0,0,0,0,0,0,0,0,0,0,0,0,0,0,0,0,0,0,0,0,0,0,0,0,0,0.1379,0.138,0,0.1435,0.1436,0.1436,0.1484,0.1484,0.1485,0.1486,0.1542,0.1543,0.1544,0,0,0,0,0,0,0,0,0,0,0,0,0,0.1309,0.131,0.1379,0.138,0.1381,0.1435,0.1436,0.1436,0.1483,0.1484,0.1485,0.1486,0.1542,0.1543,0.1544,0,0,0,0,0,0,0,0,0,0,0,0,0,0.1348,0.1311,0.1379,0.1412,0.1416,0.1435,0.1436,0.1436,0.1483,0.1484,0.1485,0.1486,0.1542,0.1543,0.1544,0.1532,0,0,0.1548,0.1549,0,0,0,0,0,0,0,0,0.1346,0.135,0.1407,0.141,0.1414,0.1455,0.1432,0.1469,0.1483,0.1456,0.1486,0.1487,0.1513,0.1517,0.1523,0.1534,0.1537,0.1548,0.1549,0.155,0.155,0,0,0,0,0,0,0,0.1343,0.1348,0.14,0.1407,0.1412,0.1423,0.143,0.1439,0.1477,0.1458,0.1462,0.1471,0.1516,0.1522,0.1525,0.1538,0.1548,0.1549,0.155,0.1551,0.163,0.1631,0,0,0,0,0,0,0.1339,0.1346,0.1398,0.1401,0.1384,0.1424,0.1431,0.1439,0.1477,0.1484,0.147,0.1473,0.1519,0.1523,0.1527,0.1597,0.155,0.1551,0.1552,0.1629,0.163,0.1632,0,0,0,0,0,0,0.1337,0.1343,0.1396,0.1376,0.1384,0.1424,0.1433,0.144,0.1477,0.1486,0.1493,0.1504,0.152,0.1525,0.1565,0.1596,0.1551,0.1553,0.1627,0.1629,0.1631,0.1684,0,0,0,0,0,0,0.1335,0.1342,0.1361,0.1376,0.1385,0.1427,0.1433,0.144,0.148,0.1485,0.1517,0.1522,0.1521,0.1563,0.1566,0.1597,0.1554,0.1625,0.1628,0.163,0.168,0.1687,0.1693,0,0,0,0,0,0.1332,0.1348,0.1361,0.1368,0.1405,0.1428,0.1434,0.1464,0.1481,0.1501,0.1526,0.1522,0.1581,0.1565,0.1568,0.1601,0.1624,0.1627,0.163,0.1677,0.1686,0.1693,0,0,0,0,0,0,0.1327,0.1355,0.1369,0.1394,0.142,0.1438,0.1464,0.148,0.1516,0.1531,0.1537,0.1543,0.1592,0.1587,0.1569,0.1631,0.1602,0.1606,0.1637,0.1645,0.1652,0.1659,0.1555,0,0,0,0,0,0.1334,0.1358,0.1381,0.1406,0.1421,0.1448,0.1467,0.1488,0.1514,0.1532,0.1554,0.1578,0.16,0.1617,0.1634,0.1664,0.1665,0.1688,0.1694,0.17,0.1709,0.1733,0.1742,0.1641,0.1641,0.1641,0,0,0.1339,0.136,0.1374,0.1408,0.1432,0.1457,0.1463,0.1502,0.1532,0.1531,0.1588,0.1605,0.1615,0.1654,0.1674,0.1658,0.173,0.1704,0.1708,0.1714,0.1737,0.1747,0.1755,0.1643,0.1643,0.1643,0,0,0.1351,0.1381,0.1403,0.1428,0.1471,0.1486,0.1504,0.154,0.1569,0.1614,0.1626,0.1663,0.1695,0.1711,0.172,0.1771,0.1766,0.1781,0.1819,0.1842,0.185,0.1858,0.1875,0.1884,0.1781,0.1781,0.1781,0,0.1359,0.1388,0.1414,0.1442,0.1468,0.1502,0.153,0.1561,0.1608,0.1634,0.1643,0.1709,0.1721,0.1765,0.1789,0.1787,0.1798,0.1787,0.185,0.1858,0.1864,0.1881,0.1889,0.1784,0.1784,0.1784,0.1783,0,0.1379,0.1414,0.1432,0.1478,0.1509,0.1543,0.1582,0.1625,0.1664,0.1689,0.1755,0.1776,0.1815,0.1826,0.1827,0.1883,0.1876,0.1857,0.1829,0.1878,0.1892,0.19,0.1788,0.1787,0.1787,0.1786,0,0,0.136,0.1431,0.1442,0.1473,0.1534,0.1559,0.1616,0.1668,0.1713,0.1763,0.1818,0.1865,0.1887,0.19,0.1909,0.1932,0.1992,0.1924,0.1924,0.194,0.205,0.1928,0.1925,0.1988,0.199,0.1991,0.2042,0,0.1371,0.1426,0.1459,0.152,0.1551,0.1603,0.165,0.1706,0.1758,0.1819,0.1857,0.1915,0.1911,0.1946,0.197,0.1993,0.2016,0.1981,0.2002,0.2003,0.1887,0.1931,0.1996,0.2048,0.2049,0.2051,0.2052,0,0.1373,0.1415,0.1471,0.1548,0.1568,0.1611,0.1698,0.1747,0.183,0.1872,0.1933,0.1968,0.2033,0.2015,0.2077,0.2059,0.2066,0.207,0.2072,0.1945,0.1896,0.1989,0.2066,0.2065,0.2064,0.2063,0.2062,0,0.1341,0.1421,0.147,0.1497,0.1585,0.1629,0.1684,0.1768,0.1823,0.1919,0.1971,0.2034,0.209,0.211,0.2136,0.2119,0.2188,0.2156,0.205,0.2042,0.2112,0.2104,0.2192,0.2192,0.2192,0.2192,0.2192,0,0.1322,0.1367,0.1468,0.1494,0.156,0.163,0.1709,0.1769,0.1869,0.1925,0.2006,0.2053,0.2121,0.2166,0.2164,0.2135,0.2212,0.2066,0.2048,0.2133,0.2127,0.2118,0.2109,0.2194,0.2194,0.2193,0.2193,0,0.1271,0.1337,0.1401,0.1507,0.1545,0.1598,0.1724,0.1775,0.1882,0.1961,0.2001,0.2101,0.2148,0.2195,0.2232,0.2165,0.215,0.2119,0.2223,0.2209,0.1981,0.1974,0.1998,0.1994,0.1991,0.1988,0.1986,0,0.1243,0.1274,0.1398,0.1441,0.1494,0.1588,0.1642,0.1763,0.1815,0.1962,0.1983,0.2087,0.2131,0.2088,0.2141,0.2132,0.2103,0.2082,0.2014,0.1982,0.1963,0.1961,0.1958,0.1981,0.198,0.1979,0.1978,0,0.1189,0.1248,0.13,0.139,0.1461,0.1531,0.1623,0.1651,0.1776,0.1895,0.1915,0.1936,0.1986,0.1999,0.2018,0.2001,0.2085,0.2047,0.2052,0.1989,0.1961,0.1945,0.1946,0.1967,0.1968,0.1969,0.197,0,0.115,0.1173,0.1252,0.1322,0.1404,0.1441,0.1504,0.1558,0.1622,0.1773,0.177,0.1865,0.1959,0.1933,0.1943,0.1929,0.1889,0.181,0.1828,0.1841,0.1765,0.1706,0.1624,0,0,0,0,0,0.1101,0.1119,0.1178,0.1242,0.132,0.1369,0.147,0.1534,0.165,0.1619,0.1691,0.172,0.1735,0.1785,0.1737,0.188,0.1904,0.1817,0.1825,0.1904,0.1917,0.1842,0,0,0,0,0,0,0.1066,0.1115,0.1142,0.1159,0.1189,0.1258,0.1315,0.14,0.1389,0.151,0.1525,0.1617,0.166,0.1744,0.1703,0.172,0.1689,0.1882,0.1878,0.1897,0.1909,0.1919,0.1846,0,0,0,0,0]},{"header":{"parameterUnit":"m.s-1","parameterCategory":2,"la1":30.2991,"la2":30.254,"lo1":-89.0895,"lo2":-89.0444,"dy":0.0017,"dx":0.0017,"nx":28,"ny":28,"refTime":"2024-03-17T09:00:00:Z","depth":"4","parameterNumber":3,"parameterNumberName":"V-component_of_CURRENTS"},"data":[0,0,0,0,0,0,0,0,0,0,0,0,0,0,0,0,0,0,0,0,0,0,0,0,0,0,0,0,0,0,0,0,0,0,0,0,0,0,0,0,0,0,0,0,0,0,0,0,0,0,0,0,0,0,0,0,0,0,0.0157,0.0157,0,0.0136,0.0135,0.0135,0.0118,0.0118,0.0118,0.0118,0.0097,0.0096,0.0096,0,0,0,0,0,0,0,0,0,0,0,0,0,0.0161,0.0162,0.0157,0.0157,0.0157,0.0136,0.0135,0.0135,0.0118,0.0118,0.0118,0.0117,0.0097,0.0096,0.0096,0,0,0,0,0,0,0,0,0,0,0,0,0,0.0152,0.0162,0.0157,0.0146,0.0145,0.0136,0.0135,0.0135,0.0118,0.0118,0.0118,0.0117,0.0097,0.0096,0.0096,0.0096,0,0,0.0094,0.0094,0,0,0,0,0,0,0,0,0.0152,0.0151,0.0148,0.0147,0.0145,0.0129,0.0129,0.0122,0.0118,0.0128,0.0118,0.0117,0.0108,0.0106,0.0103,0.0095,0.0095,0.0094,0.0093,0.0093,0.0093,0,0,0,0,0,0,0,0.0153,0.0152,0.0149,0.0148,0.0146,0.0134,0.0133,0.0128,0.0119,0.0127,0.0126,0.0124,0.0107,0.0103,0.0102,0.0094,0.0094,0.0093,0.0093,0.0093,0.0074,0.0074,0,0,0,0,0,0,0.0157,0.0153,0.0149,0.0148,0.0148,0.0134,0.0133,0.0135,0.0119,0.0117,0.0124,0.0123,0.0104,0.0103,0.0101,0.0102,0.0093,0.0093,0.0092,0.0074,0.0074,0.0074,0,0,0,0,0,0,0.0158,0.0158,0.015,0.015,0.0148,0.0135,0.0137,0.0134,0.0131,0.0117,0.0114,0.0123,0.0104,0.0102,0.0099,0.0101,0.0092,0.0092,0.0074,0.0074,0.0074,0.0104,0,0,0,0,0,0,0.0158,0.0158,0.0161,0.015,0.0148,0.0149,0.0137,0.0134,0.013,0.0128,0.0115,0.0113,0.0104,0.01,0.0098,0.01,0.0091,0.0075,0.0074,0.0074,0.0103,0.0105,0.0106,0,0,0,0,0,0.0158,0.0166,0.0162,0.0161,0.0153,0.0149,0.0147,0.0136,0.013,0.0131,0.0122,0.0114,0.0097,0.01,0.0098,0.0099,0.0075,0.0074,0.0074,0.0102,0.0104,0.0106,0,0,0,0,0,0,0.0171,0.0165,0.016,0.0166,0.0159,0.0146,0.0147,0.0139,0.0132,0.0132,0.0117,0.0114,0.0112,0.01,0.0104,0.0092,0.0083,0.0082,0.0104,0.0106,0.0108,0.0118,0.0091,0,0,0,0,0,0.0175,0.018,0.017,0.0175,0.0172,0.0159,0.0156,0.015,0.0142,0.0139,0.0128,0.0116,0.0109,0.0104,0.0096,0.0093,0.0074,0.009,0.0092,0.0093,0.0099,0.007,0.007,0.0073,0.0073,0.0073,0,0,0.0182,0.0179,0.0182,0.0178,0.0171,0.0175,0.0157,0.0156,0.016,0.0138,0.0139,0.0124,0.0109,0.0106,0.0103,0.0097,0.0081,0.0093,0.0094,0.01,0.007,0.0069,0.0069,0.0073,0.0073,0.0073,0,0,0.02,0.0195,0.0204,0.02,0.0193,0.0188,0.0189,0.0177,0.0171,0.017,0.0154,0.0141,0.013,0.0117,0.0111,0.0115,0.0092,0.0109,0.0126,0.0098,0.0097,0.0097,0.0069,0.0065,0.0109,0.0109,0.0109,0,0.0208,0.022,0.0206,0.0212,0.0216,0.0196,0.0209,0.02,0.0189,0.0187,0.0175,0.0151,0.0136,0.013,0.0129,0.012,0.01,0.0122,0.01,0.0099,0.0098,0.007,0.0066,0.011,0.011,0.011,0.011,0,0.023,0.0241,0.0245,0.025,0.025,0.0258,0.0246,0.0243,0.0232,0.0221,0.021,0.0183,0.0169,0.0157,0.0146,0.0132,0.0119,0.0108,0.0098,0.01,0.0069,0.0065,0.0112,0.0111,0.0111,0.0111,0,0,0.0251,0.0261,0.0264,0.0276,0.0273,0.0278,0.0282,0.0282,0.0288,0.0261,0.0261,0.0234,0.0212,0.0202,0.0178,0.0151,0.0121,0.0129,0.0126,0.0106,0.0057,0.0048,0.0041,0.0105,0.0105,0.0104,0.0038,0,0.0276,0.0302,0.0299,0.0328,0.0342,0.0329,0.0338,0.0332,0.032,0.0312,0.0272,0.0265,0.0232,0.0225,0.0191,0.0144,0.0111,0.014,0.0054,0.0052,0.0047,0.0037,0.0103,0.0034,0.0033,0.0032,0.0031,0,0.0302,0.0317,0.0352,0.0374,0.0379,0.0391,0.0403,0.0408,0.0387,0.0375,0.0349,0.032,0.028,0.0249,0.0163,0.0183,0.0124,0.008,0.0076,0.0056,0.0034,0.0031,0.0023,0.0023,0.0024,0.0025,0.0025,0,0.033,0.0356,0.0389,0.0396,0.0414,0.0426,0.0432,0.0426,0.044,0.0413,0.0416,0.0359,0.0335,0.0255,0.0164,0.0163,0.0063,0.0048,-0.0018,-0.002,-0.0004,-0.0003,-0.0018,-0.0018,-0.0018,-0.0018,-0.0018,0,0.036,0.0387,0.0405,0.0423,0.0465,0.0458,0.0495,0.0489,0.0489,0.0505,0.0451,0.0445,0.0336,0.0268,0.0176,0.0066,0.0069,-0.0016,-0.0038,0.0009,0.0013,-0.0008,-0.0006,-0.002,-0.002,-0.0019,-0.0019,0,0.0387,0.0401,0.0442,0.0468,0.0483,0.0508,0.0544,0.0565,0.0556,0.0574,0.057,0.051,0.0414,0.0301,0.0167,0.0089,-0.0018,-0.006,0.0001,-0.0016,-0.0086,-0.0082,-0.014,-0.014,-0.0141,-0.0142,-0.0142,0,0.0402,0.0428,0.0478,0.0506,0.0521,0.0559,0.059,0.0599,0.0621,0.0613,0.062,0.0543,0.0485,0.0295,0.0166,-0.0014,-0.0042,-0.0098,-0.0097,-0.0083,-0.0099,-0.0093,-0.0088,-0.0143,-0.0144,-0.0144,-0.0144,0,0.0432,0.0453,0.0486,0.0543,0.0585,0.0633,0.0669,0.0693,0.0699,0.0699,0.0662,0.0562,0.045,0.0296,0.0155,0.0026,-0.006,-0.0107,-0.0106,-0.0105,-0.0089,-0.0102,-0.0096,-0.0147,-0.0146,-0.0146,-0.0146,0,0.0456,0.0482,0.0527,0.0576,0.0634,0.068,0.0699,0.0715,0.0737,0.072,0.0705,0.0581,0.051,0.0316,0.0188,0.0059,0.0022,-0.002,-0.0025,-0.0023,0.0027,0.0066,0.0037,0,0,0,0,0,0.0474,0.0503,0.0551,0.0605,0.0661,0.0695,0.0744,0.0755,0.0765,0.0745,0.0725,0.0618,0.0422,0.0341,0.0209,0.0166,-0.0004,0.0006,-0.0055,-0.0161,-0.0158,-0.0119,0,0,0,0,0,0,0.0486,0.0534,0.0552,0.062,0.066,0.0723,0.0757,0.0762,0.0749,0.0737,0.0638,0.0585,0.0397,0.0498,0.0207,0.0167,0.011,-0.0084,-0.0087,-0.0163,-0.016,-0.0158,-0.0117,0,0,0,0,0]}]]